Preview of NWS' New Version of Forecast
This preview is not operational and should not be used for support decisions.

Regional Weather Roundup (RWR)

Issued by Philadelphia/Mt Holly (PHI)

                            
000
ASUS41 KPHI 190611
RWRPHI

REGIONAL WEATHER ROUNDUP
NATIONAL WEATHER SERVICE MOUNT HOLLY NJ
100 AM EST SAT JAN 19 2019

NOTE:  "FAIR" INDICATES FEW OR NO CLOUDS BELOW 12,000 FEET WITH NO
SIGNIFICANT WEATHER AND/OR OBSTRUCTIONS TO VISIBILITY.

 * = STATION DOES NOT REPORT PRECIPITATION (E.G. RAIN, SNOW, ETC.) 
        OR FOG.

NJZ015>026-190700-
SOUTHERN NEW JERSEY
  
CITY           SKY/WX    TMP DP  RH WIND       PRES   REMARKS
POMONA         FOG       26  26 100 NW3       30.20S VSB 1/4          
6HR MIN TEMP:  26; 6HR MAX TEMP:  34;                                

WILDWOOD*      CLOUDY    32  30  92 NW3       30.21S FOG              
MILLVILLE      CLOUDY    31  30  96 CALM      30.19F FOG              
WRIGHTSTOWN    CLOUDY    33  31  91 W3        30.16F                  
MOUNT HOLLY    CLOUDY    33  30  88 CALM      30.20S FOG              
TRENTON        NOT AVBL                                               

$$
NJZ001>014-190700-
NORTHERN NEW JERSEY
  
CITY           SKY/WX    TMP DP  RH WIND       PRES   REMARKS
SUSSEX         FAIR      23  20  88 CALM      30.16S                  
ANDOVER*         N/A     24  22  91 CALM      30.17S                  
MORRISTOWN     FAIR      25  25 100 CALM      30.18S FOG              
NEWARK         FAIR      33  27  78 W6        30.19S WCI  28          
TETERBORO      FAIR      32  23  69 VRB6      30.18S WCI  26          
CALDWELL       FAIR      27  23  85 CALM      30.19S                  
SOMERVILLE     CLOUDY    30  29  96 CALM      30.18S FOG              
ALLAIRE*       CLOUDY    30  29  96 W5        30.19F FOG     WCI  25  
TOMS RIVER*    MOCLDY    26  25  96 CALM      30.20S FOG              

$$
PAZ043-044-047-054-055-060>062-066>071-190700-
EASTERN PENNSYLVANIA
  
CITY           SKY/WX    TMP DP  RH WIND       PRES   REMARKS
PHILADELPHIA   CLOUDY    35  30  82 NW5       30.21S WCI  31          
6HR MIN TEMP:  34; 6HR MAX TEMP:  37;                                

NORTH PHILA    CLOUDY    37  30  75 NW6       30.21S HAZE    WCI  32  
BLUE BELL*     CLOUDY    32  32 100 CALM      30.20F                  
DOYLESTOWN     CLOUDY    32  28  85 CALM      30.17F                  
QUAKERTOWN*    MOCLDY    28  28 100 CALM      30.18F FOG              
PERKASIE*      CLOUDY    30  30 100 CALM      30.18F FOG              
POTTSTOWN      CLOUDY    31  29  92 CALM      30.20F FOG              
LANCASTER      CLOUDY    33  31  92 CALM      30.19S FOG              
COATESVILLE    CLOUDY    32  30  93 CALM      30.19S FOG              
READING        CLOUDY    34  30  85 NW7       30.19S WCI  28          
6HR MIN TEMP:  31; 6HR MAX TEMP:  35;                                

ALLENTOWN      CLOUDY    34  26  72 CALM      30.18F                  
6HR MIN TEMP:  30; 6HR MAX TEMP:  35;                                

MOUNT POCONO   CLOUDY    27  19  72 NW10      30.09F WCI  17          
6HR MIN TEMP:  27; 6HR MAX TEMP:  29;                                

HAZLETON       CLOUDY   N/A N/A N/A CALM      30.15R                  
LEHIGHTON      CLOUDY    32  30  93 CALM      30.19S                  
WILKES BARRE   CLOUDY    32  21  64 NW5       30.15S WCI  27          

$$
DEZALL-MDZ008-012-015-019-020-190700-
DELAWARE AND EASTERN MARYLAND
  
CITY           SKY/WX    TMP DP  RH WIND       PRES   REMARKS
WILMINGTON     CLOUDY    33  31  92 N3        30.21S FOG              
6HR MIN TEMP:  33; 6HR MAX TEMP:  35;                                

DOVER          FAIR      33  31  93 NW3       30.20S FOG              
GEORGETOWN     CLOUDY    32  30  92 CALM      30.21S FOG              
6HR MIN TEMP:  30; 6HR MAX TEMP:  38;                                

EASTON         CLOUDY    34  33  96 CALM      30.24S FOG              
PATUXENT       CLOUDY    34  34 100 CALM      30.19  FOG              
OCEAN CITY     CLOUDY    30  30 100 CALM      30.21F FOG              
WALLOPS ISLAND CLOUDY    37  33  85 CALM      30.21F                  
CAMBRIDGE      CLOUDY    34  32  93 CALM      30.21S FOG              
SALISBURY      CLOUDY    32  31  96 CALM      30.21S FOG              

$$
PAZ001-021-NYZ056-072-MDZ011-DCZ001-190700-
OTHER NEARBY LOCATIONS
  
CITY           SKY/WX    TMP DP  RH WIND       PRES   REMARKS
HARRISBURG     CLOUDY    33  31  92 CALM      30.19R                  
STATE COLLEGE  CLOUDY    32  26  80 CALM      30.15F                  
WILLIAMSPORT   CLOUDY    32  25  75 CALM      30.17S                  
BINGHAMTON     CLOUDY    24  19  81 NW5       30.10S WCI  18          
NEW YORK CITY  FAIR      35  24  64 MISG      30.20S                  
BALTIMORE      MOCLDY    33  32  96 CALM      30.19F                  
WASHINGTON DC  CLOUDY    37  35  92 S3        30.21S FOG              

$$